Find Local Weather

World > North America > United States > Nevada

Lane, Nevada Regional Weather

Lat: 39.25N, Lon: 114.88W
Wx Zone: NVZ035
Feedback

Lane, NV Regional Weather

Expires:201905231900;;339555
ASUS45 KREV 231810
RWRNV 
NEVADA REGIONAL WEATHER ROUNDUP
NATIONAL WEATHER SERVICE RENO NV
1100 AM PDT THU MAY 23 2019

NOTE: "FAIR" INDICATES FEW OR NO CLOUDS BELOW 12,000 FEET WITH NO
SIGNIFICANT WEATHER AND/OR OBSTRUCTIONS TO VISIBILITY.


NVZ035-037-231900-
CENTRAL NEVADA
  
CITY           SKY/WX    TMP DP  RH WIND       PRES   REMARKS
ELY            LGT RAIN  39  32  76 N8        29.78R                  
6HR MIN TEMP:  33; 6HR MAX TEMP:  39; 6HR PCP:  0.09;                

EUREKA           N/A     43  38  82 VRB7      29.77S                  
6HR MIN TEMP:  38; 6HR MAX TEMP:  44; 6HR PCP:  0.24;                

$$


SKY/WX - Weather  TMP - Temperature  DP - Dew Point  RH - Relative Humidity
WIND - Wind Direction/Speed PRES - Barometric Pressure VSB - Visibility
WCI - Wind Chill Index E13G22 Wind - East Wind 13 mph/Gusts of 22 mph